Regional Weather Roundup
Issued by NWS Charleston, WV

Home | Current Version | Previous Version | Graphics & Text | Print | Product List | Glossary On
Versions: 1 2 3 4 5 6 7 8 9 10 11 12 13 14 15 16 17 18 19 20 21 22 23 24 25 26 27 28 29 30 31 32 33 34 35 36 37 38 39 40 41 42 43 44 45 46 47 48 49 50
000
ASUS41 KRLX 021510
RWRRLX
West Virginia Regional Weather Roundup
National Weather Service Charleston WV
1000 AM EST MON MAR 02 2015

Note: "fair" indicates few or no clouds below 12,000 feet with no
significant weather and/or obstructions to visibility.

WVZ003-021600-
Northern Panhandle of West Virginia

CITY           SKY/WX    TMP DP  RH WIND       PRES   REMARKS
WHEELING       CLOUDY    24  15  68 W14       30.41S
$$

WVZ009-021600-
Northwest West Virginia

CITY           SKY/WX    TMP DP  RH WIND       PRES   REMARKS
PARKERSBURG    PTSUNNY   27  15  61 NW8       30.51R
$$

WVZ006-021600-
Western West Virginia

CITY           SKY/WX    TMP DP  RH WIND       PRES   REMARKS
HUNTINGTON     MOSUNNY   31  23  72 NW6       30.49S
$$

WVZ015-021600-
West Central West Virginia

CITY           SKY/WX    TMP DP  RH WIND       PRES   REMARKS
CHARLESTON     MOSUNNY   33  24  69 NW9       30.47S
$$

WVZ022-031-021600-
North Central West Virginia

CITY           SKY/WX    TMP DP  RH WIND       PRES   REMARKS
CLARKSBURG     MOSUNNY   30  20  66 W9        30.41S
MORGANTOWN     CLOUDY    29  17  61 NW7       30.40F
$$

WVZ025-035-042-045-021600-
Southern West Virginia

CITY           SKY/WX    TMP DP  RH WIND       PRES   REMARKS
BECKLEY        CLOUDY    29  22  75 NW14      30.37R
LOGAN            N/A     32  27  80 VRB6      30.40F
BLUEFIELD      CLOUDY    32  28  85 NW9G17    30.34R FOG
LEWISBURG      MOSUNNY   35  24  63 NW9       30.34R
$$

WVZ047-021600-
Northern Mountains of West Virginia

CITY           SKY/WX    TMP DP  RH WIND       PRES   REMARKS
ELKINS         CLOUDY    29  23  78 NW12      30.36R
$$

WVZ052-021600-
Eastern Panhandle of West Virginia

CITY           SKY/WX    TMP DP  RH WIND       PRES   REMARKS
MARTINSBURG    PTSUNNY   39  22  50 NW22G30   30.27R
PETERSBURG     MOSUNNY   38  20  47 NW16G22   30.32R
$$



USA.gov is the U.S. government's official web portal to all federal, state and local government web resources and services.